{"data":{"norad_id":65135,"epoch":"2026-05-25T01:17:16.796832Z","epoch_age_seconds":70682,"freshness":"FRESH","line1":"1 65135U 25171D   26145.05366663  .00001978  00000+0  28836-3 0  9993","line2":"2 65135  51.8976 180.3950 0000391  77.1575 282.9431 14.79930290 44202","mean_motion":14.7993029,"eccentricity":3.91e-5,"inclination_deg":51.8976,"raan_deg":180.395,"arg_perigee_deg":77.1575,"mean_anomaly_deg":282.9431,"bstar":0.00028836,"rev_number":4420,"period_min":97.301880347351,"perigee_km":629.27018365221,"apogee_km":629.8181843208,"semimajor_km":7007.6811839865,"source":"CELESTRAK","updated_at":"2026-05-25T13:38:05.163422Z"}}